Flag for U.S.A. Weather past 2 weeks in Wake Island, Wake Island, U.S.A.

Now
78 °F

Passing clouds.


Feels Like: 80 °F
Forecast: 78 / 84 °F
Wind: 22 mph from East

Location: Wake Island Airfld

Current Time: Mar 30, 2015 at 11:25:02 PM

Latest Report: Mar 30, 2015 at 10:58 PM


Visibility: N/A

Pressure: 30.12 "Hg

Humidity: 80%

Dew point: 71 °F

Location of Wake IslandLocation

Historic Weather in Wake Island — Graph

°F

Wake Island temperature yesterday

Maximum temperature yesterday: 83 °F (at 1:58 PM)
Minimum temperature yesterday: 73 °F (at 2:59 AM)
Average temperature yesterday: 78 °F

Past Weeks' High & Low Weather Summary

 TemperatureHumidityPressure
High84 °F (Mar 30, 3:58 PM)94% (Mar 20, 5:59 PM)30.16 "Hg (Mar 20, 5:59 PM)
Low73 °F (Mar 18, 12:58 AM)61% (Mar 18, 10:58 AM)29.80 "Hg (Mar 21, 3:58 PM)
Average78 °F79%30.01 "Hg
* Reported Mar 15 9:58 PM — Mar 30 9:58 PM, Wake Island, Weather by CustomWeather, © 2015

Note: Actual official high and low records may vary slightly from our data, if they occured in-between our weather recording intervals... More about our weather records

Advertising

Wake Island weather history for previous 24 hours

 ConditionsComfort  
Time TempWeatherWind HumidityBarometerVisibility
9:58 PM
Mon, Mar 30
78 °FPartly cloudy.21 mph83%30.12 "HgN/A
8:58 PM78 °FPassing clouds.18 mph79%30.10 "HgN/A
7:58 PM79 °FScattered clouds.21 mph78%30.09 "Hg5 mi
6:58 PM80 °FHaze.22 mph76%30.08 "Hg4 mi
5:58 PM81 °FScattered clouds.21 mph73%30.07 "Hg5 mi
5:03 PM82 °FPartly sunny.22 mph70%30.03 "HgN/A
4:58 PM82 °FBroken clouds.23 mph71%30.05 "HgN/A
3:58 PM84 °FPassing clouds.21 mph67%30.05 "HgN/A
2:58 PM83 °FPassing clouds.21 mph69%30.05 "HgN/A
1:58 PM82 °FSunny.20 mph66%30.08 "HgN/A
12:58 PM82 °FPartly sunny.21 mph68%30.11 "HgN/A
11:58 AM83 °FPassing clouds.20 mph70%30.13 "HgN/A
10:58 AM80 °FScattered clouds.15 mph79%30.14 "HgN/A
9:58 AM77 °FFog.17 mph88%30.16 "Hg4 mi
8:58 AM79 °FPartly sunny.21 mph79%30.15 "HgN/A
8:03 AM79 °FPartly sunny.20 mph84%30.11 "HgN/A
6:58 AM77 °FPassing clouds.17 mph85%30.12 "HgN/A
5:58 AM77 °FPassing clouds.20 mph84%30.10 "HgN/A
5:03 AM77 °FPassing clouds.16 mph83%30.07 "HgN/A
4:58 AM77 °FPassing clouds.16 mph84%30.09 "HgN/A
3:58 AM77 °FPassing clouds.18 mph84%30.09 "HgN/A
2:58 AM76 °FPassing clouds.15 mph86%30.10 "HgN/A
1:58 AM76 °FPartly cloudy.16 mph87%30.11 "HgN/A
12:58 AM76 °FOvercast.17 mph87%30.12 "HgN/A
11:58 PM
Sun, Mar 29
76 °FPartly cloudy.15 mph88%30.13 "HgN/A
Weather by CustomWeather, © 2015

See weather overviewHow to use our weather pages